Reading, PA

12:33 PM EDT on April 28, 2017 (GMT -0400)
Reading Regional-Spaatz

Weather History for KRDG - June, 2013

Change the Weather History Date:

Wednesday, June 26, 2013

  Actual Average Record
Temperature  
Mean Temperature 79 °F 73 °F  
Max Temperature 90 °F 84 °F 102 °F (1952)
Min Temperature 67 °F 63 °F 46 °F (1979)
Degree Days  
Heating Degree Days 0 0  
Month to date heating degree days 2 23  
Since 1 June heating degree days 2 23  
Since 1 July heating degree days 4990 5391  
Cooling Degree Days 14 8  
Month to date cooling degree days 189 153  
Year to date cooling degree days 288 213  
Since 1 June cooling degree days 189 153  
Growing Degree Days 28 (Base 50)    
Moisture  
Dew Point 66 °F    
Average Humidity 70    
Maximum Humidity 90    
Minimum Humidity 50    
Precipitation  
Precipitation T in 0.10 in 2.25 in (2006)
Month to date precipitation 5.01 3.32  
Year to date precipitation 18.05 20.34  
Sea Level Pressure  
Sea Level Pressure 29.86 in    
Wind  
Wind Speed 3 mph (WSW)    
Max Wind Speed 12 mph    
Max Gust Speed 16 mph    
Visibility 10 miles    
Events Rain    
T = Trace of Precipitation, MM = Missing Value Source: NWS Daily Summary

Daily Weather History Graph

Daily Weather History Graph

Search for Another Location

Airport or City:

Trip Planner

Search our weather history database for the weather conditions in past years. The results will help you decide how hot, cold, wet, or windy it might be!

Date:

Astronomy

Jun. 26, 2013 Rise Set
Actual Time 5:35 AM EDT 8:38 PM EDT
Civil Twilight 5:02 AM EDT 9:11 PM EDT
Nautical Twilight 4:20 AM EDT 9:53 PM EDT
Astronomical Twilight 3:30 AM EDT 10:42 PM EDT
Moon 10:59 PM EDT (6/26) 9:25 AM EDT (6/26)
Length of Visible Light 16h 08m
Length of Day
15h 02m
Waning Gibbous, 85% of the Moon is Illuminated
Jun 26
Waning Gibbous
Jun 30
Last Quarter
Jul 8
New
Jul 15
First Quarter
Jul 22
Full

Hourly Weather History & Observations

Time (EDT) Temp. Heat Index Dew Point Humidity Pressure Visibility Wind Dir Wind Speed Gust Speed Precip Events Conditions
12:54 AM 69.1 °F - 66.0 °F 90% 29.87 in 10.0 mi ESE 3.5 mph - N/A   Clear
1:54 AM 69.1 °F - 66.0 °F 90% 29.88 in 10.0 mi Calm Calm - N/A   Clear
2:54 AM 69.1 °F - 66.0 °F 90% 29.87 in 10.0 mi SE 3.5 mph - N/A   Clear
3:54 AM 70.0 °F - 64.0 °F 81% 29.88 in 10.0 mi West 4.6 mph - N/A   Clear
4:54 AM 70.0 °F - 64.0 °F 81% 29.88 in 10.0 mi West 6.9 mph - N/A   Clear
5:54 AM 69.1 °F - 64.0 °F 84% 29.88 in 10.0 mi Calm Calm - N/A   Clear
6:54 AM 70.0 °F - 64.9 °F 84% 29.88 in 10.0 mi Calm Calm - N/A   Clear
7:54 AM 73.0 °F - 64.9 °F 76% 29.89 in 10.0 mi SSW 3.5 mph - N/A   Clear
8:54 AM 75.0 °F - 64.9 °F 71% 29.89 in 10.0 mi SW 4.6 mph - N/A   Clear
9:54 AM 77.0 °F - 64.9 °F 66% 29.88 in 10.0 mi Calm Calm - N/A   Clear
10:54 AM 79.0 °F - 64.0 °F 60% 29.86 in 10.0 mi Calm Calm - N/A   Clear
11:54 AM 81.0 °F 82.7 °F 64.9 °F 58% 29.89 in 10.0 mi West 4.6 mph - N/A   Clear
12:54 PM 82.9 °F 85.0 °F 66.0 °F 56% 29.89 in 10.0 mi Calm Calm - N/A   Partly Cloudy
1:54 PM 84.9 °F 88.2 °F 68.0 °F 57% 29.87 in 10.0 mi Calm Calm - N/A   Clear
2:54 PM 88.0 °F 90.7 °F 66.9 °F 49% 29.85 in 10.0 mi West 9.2 mph - N/A   Clear
3:54 PM 88.0 °F 90.3 °F 66.0 °F 48% 29.83 in 10.0 mi West 3.5 mph 16.1 mph N/A   Clear
4:54 PM 87.1 °F 90.6 °F 68.0 °F 53% 29.81 in 10.0 mi West 9.2 mph - N/A   Scattered Clouds
5:54 PM 84.0 °F 86.5 °F 66.9 °F 56% 29.81 in 10.0 mi NW 6.9 mph - 0.00 in   Overcast
6:54 PM 82.9 °F 85.8 °F 68.0 °F 60% 29.82 in 10.0 mi NNW 5.8 mph - 0.00 in Rain Light Rain
7:54 PM 79.0 °F - 71.1 °F 77% 29.82 in 10.0 mi SSW 6.9 mph - 0.00 in   Scattered Clouds
8:54 PM 75.9 °F - 71.1 °F 85% 29.82 in 10.0 mi Calm Calm - N/A   Clear
9:54 PM 75.9 °F - 68.0 °F 76% 29.85 in 10.0 mi SW 3.5 mph - N/A   Overcast
10:54 PM 75.0 °F - 68.0 °F 79% 29.83 in 10.0 mi WSW 3.5 mph - N/A   Partly Cloudy
11:54 PM 73.9 °F - 69.1 °F 85% 29.83 in 10.0 mi Calm Calm - N/A   Overcast